User: anonymous   Login
Location: Tom
(33.0437°N, 96.9452°W)
Time: 22:33:14
(UTC-06:00)
Language:

Envisat - Orbit

View from above orbital plane
View from above orbital plane
View from above satellite
View from above satellite

Ground track
Ground track

The orbit data is extracted from the following two-line orbital elements,

1 27386U 02009A   19052.70793354 -.00000010  00000-0  10289-4 0  9998
2 27386  98.1605  79.6507 0001192  97.7736  15.6976 14.37941778889384
Epoch (UTC): 21 February 2019 16:59:25
Eccentricity: 0.0001192
inclination: 98.1605°
perigee height: 764 km
apogee height: 766 km
right ascension of ascending node: 79.6507°
argument of perigee: 97.7736°
revolutions per day: 14.37941778
mean anomaly at epoch: 15.6976°
orbit number at epoch: 88938

The dashed part of the orbit path shows where the satellite is in the earth's shadow,  

DLR